Theta_e
296 296 296 294 294 292 295 302 305 300 300 305 302 303 299 297 298 299 299 298 299 299 300 300 301 301 301 304 305 304 306 314 313 318 314 314 311 315 318 319 319 318 324 327
295 295 296 293 292 293 299 303 302 298 302 306 302 300 299 298 299 299 299 300 300 300 299 301 300 301 301 304 304 305 307 310 315 316 316 314 312 312 315 318 318 323 324 326
296 296 295 292 292 293 296 304 304 301 302 299 300 300 299 299 299 300 301 300 300 302 303 302 303 303 303 305 306 305 306 307 308 313 316 314 314 314 317 319 320 319 319 320
296 295 294 293 291 293 297 303 304 301 303 301 300 299 300 300 300 300 299 301 300 301 302 302 301 304 305 304 305 307 308 311 312 313 313 318 319 318 318 318 317 315 313 315
296 296 294 292 291 294 300 302 302 297 300 300 300 301 300 300 300 300 300 302 301 301 303 303 303 303 304 307 308 309 309 315 314 315 316 316 317 315 316 312 312 311 312 313
296 295 293 292 293 296 299 299 298 300 299 300 301 303 299 300 301 300 300 301 301 302 304 303 303 304 305 306 307 311 311 313 313 310 307 309 311 309 309 314 312 312 313 310
295 294 293 293 293 296 298 298 299 301 301 299 299 299 299 300 300 301 301 301 302 302 302 302 303 304 305 306 309 308 311 312 310 309 310 316 312 311 313 311 307 306 306 305
295 295 294 294 293 294 298 298 298 299 302 299 299 299 300 301 301 303 303 302 302 303 303 305 307 310 310 309 307 307 309 312 312 312 315 314 313 309 311 313 307 303 303 300
293 294 295 293 292 294 297 298 297 299 301 302 300 299 301 300 301 303 304 303 304 303 305 308 312 307 309 311 308 308 307 309 312 311 309 314 307 304 307 309 307 301 299 297
293 293 294 294 294 294 297 298 298 298 300 300 300 300 299 300 300 301 303 303 304 305 306 312 310 308 307 311 309 310 312 311 313 311 314 309 301 304 307 313 305 299 297 294
293 293 294 293 295 295 296 298 298 298 299 299 300 300 300 300 300 301 301 305 304 304 306 305 307 309 309 310 308 309 307 311 310 312 313 310 298 302 303 301 299 298 295 293
292 293 293 293 294 294 295 298 297 297 297 299 297 298 298 299 299 300 301 302 303 303 302 303 305 308 309 311 311 306 307 305 307 303 303 298 296 297 295 295 295 294 294 292
293 293 293 293 293 293 295 298 297 295 296 299 300 302 300 298 298 298 301 303 301 301 301 302 304 309 307 309 307 309 304 302 305 304 299 296 295 294 293 292 291 291 291 290
293 292 292 292 292 294 295 296 296 297 298 299 301 298 300 299 299 298 299 299 300 301 302 302 304 308 306 307 306 302 299 301 302 300 298 295 292 292 292 291 290 289 289 289
292 292 291 292 294 294 296 297 297 298 298 299 300 299 300 299 300 300 299 299 300 302 302 304 305 306 305 307 304 298 297 296 300 299 297 294 291 291 290 289 289 289 288 287
292 292 292 294 293 294 297 296 298 298 297 298 299 300 301 300 300 301 300 300 300 301 301 303 304 305 304 306 302 296 295 296 297 295 292 291 290 289 288 288 287 287 287 286
291 293 293 293 293 296 298 299 297 298 297 299 300 301 301 300 300 301 301 300 301 302 301 303 304 304 304 304 302 295 294 295 296 295 293 292 291 289 288 287 286 286 285 285
291 293 292 293 295 296 296 298 297 297 297 299 298 300 302 301 302 303 302 302 302 301 302 304 304 304 302 298 295 294 293 293 294 292 292 291 290 289 289 288 287 286 285 284
292 292 294 295 295 295 297 297 296 297 299 300 299 300 306 302 302 303 303 302 304 303 305 305 304 305 300 296 294 293 293 294 292 293 292 291 290 290 289 288 287 286 285 284
292 295 295 294 294 297 296 296 298 298 299 299 300 301 303 303 303 304 304 304 304 304 305 304 305 297 293 292 292 291 291 292 292 292 291 290 289 288 287 286 285 284 282 280
294 294 295 296 296 297 299 298 300 299 299 299 299 301 303 302 304 304 303 304 304 304 306 306 306 300 293 290 290 290 290 291 291 290 290 289 288 286 285 284 282 280 278 276
294 295 295 295 296 298 301 300 300 300 300 302 301 300 301 303 303 303 303 302 304 305 305 306 307 296 292 290 289 289 289 288 288 288 287 286 286 285 283 281 278 276 274 273
295 296 296 298 300 300 300 300 300 302 303 304 303 301 301 302 302 303 304 302 304 305 307 306 299 294 291 290 288 287 287 286 286 285 284 282 281 280 278 276 275 274 274 273
296 299 301 301 301 301 303 305 307 306 306 303 302 301 302 303 302 302 302 306 304 306 307 306 296 293 291 289 288 287 285 284 283 281 279 278 276 275 275 274 274 273 273 272
297 298 302 301 303 302 300 301 302 303 303 302 302 303 303 304 303 303 304 305 305 305 307 300 294 291 289 287 285 284 282 281 280 278 277 276 276 275 275 275 274 273 273 272
297 299 301 302 302 300 301 301 299 301 303 303 303 303 304 304 304 304 304 305 306 303 297 293 290 288 287 285 283 281 281 280 279 278 277 276 276 276 276 275 274 274 273 273
298 299 297 300 302 302 300 301 301 300 303 305 303 303 302 304 303 304 305 305 300 294 292 290 288 287 284 282 281 281 281 280 280 279 278 277 277 276 276 277 275 275 275 274
Wind_Speed
14 11 9 5 2 2 4 5 2 2 3 3 3 3 4 2 6 9 11 9 12 12 14 16 17 18 14 1 9 11 9 5 7 15 19 28 19 14 17 4 5 7 2 3
14 11 8 5 3 1 7 4 3 2 3 2 2 5 6 3 6 10 12 11 11 15 15 15 13 15 16 4 5 5 6 4 5 4 13 21 19 16 11 14 2 6 5 4
14 10 8 5 3 1 3 1 0 4 6 2 5 3 3 7 9 12 12 16 18 12 12 14 8 17 9 12 9 19 11 6 10 10 10 12 16 15 3 2 4 4 6 13
13 11 7 4 3 1 3 1 3 2 2 4 3 2 3 8 12 8 16 7 13 15 17 17 17 10 14 13 15 6 3 7 9 23 29 13 10 11 7 7 5 3 4 15
11 10 6 4 6 3 2 2 2 2 2 5 4 6 3 8 11 10 10 10 17 16 16 16 17 14 13 8 7 4 3 3 10 9 4 21 12 8 16 9 9 9 11 7
14 9 6 7 6 2 3 2 0 4 6 8 6 4 5 8 4 8 11 13 15 15 10 15 18 16 19 17 14 6 4 1 2 11 15 19 15 10 11 19 20 15 12 18
11 10 9 7 6 3 5 7 5 2 4 4 2 4 8 9 5 4 11 10 11 9 19 18 16 18 18 18 16 5 6 11 1 3 4 9 11 17 19 21 18 18 16 20
11 11 8 5 5 3 2 5 3 3 4 4 3 6 8 10 1 6 5 8 8 10 8 5 8 2 4 3 4 4 6 8 3 3 9 9 14 18 15 11 11 17 16 17
11 12 8 6 6 6 1 1 3 3 3 3 8 6 7 7 9 7 3 10 4 2 3 4 3 4 3 3 4 6 7 6 3 2 6 3 9 18 16 8 4 14 14 15
13 11 9 7 6 6 5 2 1 3 2 3 7 7 6 7 10 8 7 17 8 2 3 4 4 5 7 4 4 7 5 6 7 5 5 6 17 22 15 2 5 10 11 12
12 11 11 9 6 6 7 2 1 3 3 8 7 8 9 9 8 7 13 7 7 6 7 6 5 4 6 4 11 7 8 6 6 7 5 4 23 9 7 5 7 9 10 10
13 12 11 10 8 6 7 2 2 1 2 6 17 18 16 13 9 6 6 2 8 5 5 6 4 4 5 10 3 12 5 5 3 6 4 8 11 11 10 10 9 11 10 9
14 12 10 9 9 8 8 2 4 1 2 7 7 3 6 3 4 4 3 4 7 6 5 3 3 3 7 6 5 3 4 12 3 6 8 10 11 11 11 10 10 11 11 10
14 11 9 9 9 9 9 7 6 5 3 3 1 3 2 2 4 4 6 7 8 7 5 2 3 3 7 4 3 5 4 8 7 7 9 10 12 10 9 9 9 11 11 12
12 10 9 9 9 8 8 11 8 8 2 3 6 15 3 1 3 4 5 6 5 5 4 2 2 2 4 2 2 5 5 4 4 4 5 9 7 8 8 9 10 12 11 12
10 10 10 9 8 7 4 2 10 12 5 3 3 6 7 5 4 5 4 6 2 1 2 3 2 1 4 3 3 4 5 5 5 4 10 13 9 8 10 10 11 12 12 13
11 9 9 8 8 10 4 2 4 10 8 2 3 3 1 3 4 4 3 3 3 2 3 2 3 2 4 2 3 6 5 5 6 7 9 8 2 6 9 12 14 15 16 16
12 8 7 7 7 7 7 6 4 10 5 3 2 4 3 6 2 2 1 2 1 2 3 2 2 2 2 2 5 7 6 6 7 7 8 10 10 9 10 12 13 11 11 13
10 7 6 5 3 4 5 9 9 6 3 2 3 3 2 3 3 2 2 2 3 3 2 2 1 2 3 4 7 5 3 3 3 6 8 9 9 10 10 10 11 11 10 12
10 8 4 2 5 18 19 4 2 2 2 3 4 5 5 2 1 2 3 2 2 2 4 2 1 2 6 5 7 4 3 7 5 5 6 7 9 9 10 11 12 12 12 12
5 3 2 7 23 3 3 3 3 4 3 4 3 6 6 2 2 2 2 1 1 2 2 2 3 3 6 7 6 5 5 7 7 9 10 12 11 9 10 11 14 13 12 11
8 7 6 6 2 2 4 5 3 4 4 5 3 3 4 0 1 1 1 2 2 2 1 2 2 4 10 9 8 7 9 10 11 13 14 15 14 14 14 13 12 11 10 10
8 4 4 3 3 5 5 8 4 4 4 3 3 1 1 3 2 1 1 2 3 1 2 0 3 9 8 9 8 8 11 12 14 15 17 18 18 17 14 13 11 10 10 9
2 4 6 4 4 5 4 3 3 1 3 4 3 3 2 1 3 1 3 2 2 2 3 2 5 9 8 8 8 10 10 13 15 15 16 15 13 13 13 11 10 9 9 7
3 3 5 7 1 4 3 3 3 2 4 5 3 2 2 2 2 3 3 2 3 2 2 3 8 10 9 9 10 10 9 11 12 12 12 12 11 11 10 8 7 7 7 5
3 3 1 2 3 3 1 2 3 2 4 4 1 1 2 3 2 3 3 2 2 2 3 6 9 10 8 9 9 12 13 13 13 12 11 11 10 9 9 7 6 5 3 2
3 2 1 1 2 3 2 2 2 4 4 1 2 4 3 1 2 2 2 1 3 5 6 6 9 9 10 12 13 13 14 14 13 12 11 9 8 9 6 7 6 5 6 3
Wind_Direction
164 177 189 188 166 145 224 266 230 127 348 239 210 250 24 296 304 294 305 301 300 292 298 294 298 297 288 263 318 316 308 281 289 240 193 220 212 172 218 247 255 246 110 21
177 182 181 175 171 249 316 258 125 120 226 269 274 69 269 233 298 320 308 303 305 301 297 306 287 285 288 49 12 305 359 279 307 237 248 249 213 201 177 218 223 301 308 105
171 175 186 180 172 168 300 348 316 157 201 129 330 9 338 327 328 317 323 312 297 331 318 293 289 295 332 343 302 286 268 243 236 260 285 194 202 192 250 108 201 195 251 123
169 173 185 194 183 193 303 327 247 16 193 115 40 271 258 320 327 323 311 299 314 323 315 308 298 325 325 305 272 270 238 244 235 246 248 129 112 139 181 195 79 254 17 49
168 173 192 216 186 182 270 164 335 173 81 138 210 222 327 318 324 321 303 320 321 319 293 284 297 317 297 264 281 286 211 295 284 73 106 117 125 178 211 151 22 10 342 27
167 171 176 176 174 99 355 311 154 289 152 190 222 136 289 314 312 292 330 324 311 305 334 319 301 293 284 279 293 308 283 347 272 67 101 102 65 46 65 67 42 20 23 1
166 164 180 168 160 163 9 348 335 258 219 236 57 353 335 330 341 238 295 321 308 306 325 305 274 255 262 278 283 265 299 282 148 147 202 78 53 36 85 83 45 25 14 8
166 176 181 186 174 172 359 351 359 321 299 346 224 9 317 319 51 272 279 307 270 304 306 302 282 253 185 244 29 349 230 315 31 82 80 145 35 20 9 16 47 18 9 7
184 187 198 201 200 180 312 341 340 306 289 358 8 319 327 338 347 345 337 352 300 137 267 244 269 37 172 17 348 332 358 328 24 123 103 65 13 336 339 330 73 20 18 15
177 181 186 192 189 194 221 350 50 298 278 296 7 350 330 313 336 321 339 344 347 357 318 304 351 14 28 30 31 8 352 14 23 26 61 86 349 331 310 45 7 34 34 35
183 184 185 186 178 194 196 277 229 329 305 296 323 357 319 325 332 339 334 332 9 354 356 358 349 332 13 61 49 17 39 337 25 351 38 60 359 26 50 343 51 51 56 49
177 173 175 178 188 203 201 257 177 267 276 289 308 283 270 271 291 305 307 314 21 10 347 8 323 333 347 355 45 25 52 20 37 27 71 73 45 55 39 38 53 45 54 57
182 178 176 186 198 210 205 248 164 116 298 288 245 184 169 250 261 244 287 28 3 345 347 321 297 309 352 11 39 73 49 10 82 170 67 66 55 62 57 49 56 54 58 62
181 187 187 196 205 219 213 209 220 259 312 284 326 151 215 344 236 230 243 294 315 300 296 318 295 327 15 3 53 60 349 322 24 97 118 107 57 51 50 59 71 72 63 60
177 187 195 198 207 219 220 232 243 234 296 318 303 297 207 191 224 248 241 255 302 328 344 294 318 16 320 335 85 53 1 8 357 58 42 88 63 54 64 69 63 63 70 67
181 184 192 195 202 199 192 342 232 219 199 294 302 321 209 197 221 241 218 237 255 283 290 273 294 9 345 308 75 75 44 54 10 96 83 90 104 85 79 82 76 76 75 68
177 179 191 202 201 197 214 342 317 185 174 251 286 285 187 206 227 205 197 183 266 290 290 249 276 63 346 2 68 111 68 91 77 95 117 117 74 108 104 96 91 81 74 69
180 188 201 200 195 219 257 277 131 163 214 273 270 277 208 184 191 219 222 208 30 238 274 280 270 133 81 83 94 102 99 70 67 79 87 108 128 113 98 94 89 82 78 77
176 187 172 155 203 214 203 181 150 202 285 272 205 269 335 184 213 192 161 204 233 225 233 265 262 158 64 111 144 123 75 83 150 166 116 103 97 96 92 89 84 84 82 77
168 163 143 206 218 149 121 102 164 217 242 233 252 249 283 241 87 236 193 222 247 221 209 180 197 85 114 111 101 126 161 155 152 122 113 107 86 80 77 75 74 76 73 68
163 164 199 140 136 103 169 147 208 183 235 222 242 258 254 274 223 269 344 332 250 250 131 249 155 130 140 132 129 103 75 92 86 84 76 86 103 105 98 85 79 77 76 71
185 140 109 140 184 173 186 183 189 214 256 157 183 225 236 65 330 310 289 272 262 273 136 263 158 107 136 135 121 100 90 89 86 90 93 96 98 102 100 93 87 83 81 74
160 196 150 187 175 195 209 178 198 203 196 171 117 197 207 195 197 310 278 238 247 164 233 99 60 135 138 130 121 108 104 102 100 98 92 87 82 83 97 98 98 95 83 73
219 187 162 222 176 227 201 204 171 91 89 123 154 165 224 153 176 238 248 218 251 248 240 104 142 139 125 125 129 117 94 86 88 86 90 94 97 92 101 103 106 103 94 87
244 217 201 196 114 55 46 29 102 91 138 140 183 233 198 173 203 214 247 214 245 244 20 95 129 128 121 117 110 111 107 104 110 120 117 116 115 110 105 108 112 111 104 88
250 238 217 50 144 118 125 160 146 229 163 192 262 162 235 211 246 192 221 265 241 89 85 112 122 124 124 119 119 127 134 134 128 128 127 124 131 135 130 132 132 127 130 141
255 173 26 319 27 111 119 143 167 184 179 223 207 192 233 107 209 225 269 5 70 114 115 118 122 130 126 128 137 139 135 134 139 134 135 136 139 140 152 174 179 194 201 221